(213036) = 1997 WD45 = 2006 SR37

Discovered at Socorro on 1997-11-29 by LINEAR.

Orbit

Orbit type: Main Belt

Note: WebGL enabled browser required.

epoch2024-03-31.0
epoch JD2460400.5
perihelion date2020-02-25.37501
perihelion JD2458904.87501
argument of perihelion (°)143.72926
ascending node (°)228.97802
inclination (°)6.14658
eccentricity0.3147793
perihelion distance (AU)1.8730048
Tisserand w.r.t. Jupiter3.3
ΔV w.r.t. Earth (km/sec)8.9
semimajor axis (AU)2.7334330
mean anomaly (°)326.18494
mean daily motion (°/day)0.21809270
aphelion distance (AU)3.594
period (years)4.52
P-vector [x]0.97294068
P-vector [y]0.17866990
P-vector [z]0.14650424
Q-vector [x]-0.21647345
Q-vector [y]0.92655688
Q-vector [z]0.30762248
absolute magnitude16.06
phase slope0.15
uncertainty0
referenceMPEC 2024-E02
observations used691
oppositions19
arc length (days)9354
first opposition used1997
last opposition used2023
residual rms (arc-secs)0.72
perturbers coarse indicatorM-v
perturbers precise indicator003Ek
first observation date used1997-11-26.0
last observation date used2023-07-07.0
computer nameMPCLINUX
JD of orbit computation2456847.606013
perihelion JD uncertainty (days)5.7138E-05
argument of perihelion uncertainty (°)4.0418E-05
ascending node uncertainty (°)3.8941E-05
inclination uncertainty (°)7.7851E-06
eccentricity uncertainty 6.4602E-08
perihelion distance uncertainty (AU)1.8259E-07
Minimum Orbit Intersection Distances (in AU)
for orbit epoch: 2460400.5, reference: E2024-E02
Mercury1.52906
Venus1.1552
Earth0.87813
Mars0.46677
Jupiter1.89612
Saturn5.99891
Uranus14.9194
Neptune27.0466

Observations

714 total observations over interval: 1997 11 26.16872 – 2023 07 07.339949
These data are available for download (format description).

Date (UT) J2000 RA J2000 Dec Magn Location Ref
1997 11 26.16872 04 19 25.03 +18 15 56.6 18.3   704 – Lincoln Laboratory ETS, New Mexico MPS 324
1997 11 26.19276 04 19 23.67 +18 15 48.2 18.2   704 – Lincoln Laboratory ETS, New Mexico MPS 324
1997 11 26.21662 04 19 22.24 +18 15 39.2 18.2   704 – Lincoln Laboratory ETS, New Mexico MPS 324
1997 11 29.30942 04 16 28.12 +17 56 08.3 17.5   704 – Lincoln Laboratory ETS, New Mexico MPS 324
1997 11 29.32848 04 16 26.98 +17 56 00.2 17.6   704 – Lincoln Laboratory ETS, New Mexico MPS 324
1997 11 29.34710 04 16 25.96 +17 55 54.4 17.6   704 – Lincoln Laboratory ETS, New Mexico MPS 324
1997 11 29.36781 04 16 24.70 +17 55 46.2 17.5   704 – Lincoln Laboratory ETS, New Mexico MPS 324
1997 11 30.51987 04 15 21.15 +17 48 42.4 18.8 V 566 – Haleakala-NEAT/GEODSS MPS 324
1997 11 30.52977 04 15 20.61 +17 48 38.1 19.5 V 566 – Haleakala-NEAT/GEODSS MPS 324
1997 11 30.53993 04 15 19.99 +17 48 34.0 19.8 V 566 – Haleakala-NEAT/GEODSS MPS 324
1997 12 04.23540 04 12 02.50 +17 26 37.7 18.3   704 – Lincoln Laboratory ETS, New Mexico MPS 324
1997 12 04.25401 04 12 01.59 +17 26 30.0 18.3   704 – Lincoln Laboratory ETS, New Mexico MPS 324
1997 12 04.27061 04 12 00.60 +17 26 24.5 18.6   704 – Lincoln Laboratory ETS, New Mexico MPS 324
1997 12 04.28715 04 11 59.80 +17 26 17.8 18.8   704 – Lincoln Laboratory ETS, New Mexico MPS 324
1997 12 04.30939 04 11 58.37 +17 26 09.3 18.6   704 – Lincoln Laboratory ETS, New Mexico MPS 324
1999 03 21.236180 10 32 32.360 +00 58 48.27 21.18 V 645 – Apache Point-Sloan Digital Sky Survey MPS 182397
1999 03 21.239652 10 32 32.203 +00 58 49.42 21.92   645 – Apache Point-Sloan Digital Sky Survey MPS 182397
2001 07 21.38213 19 55 02.06 -10 16 33.1 19.3   608 – Haleakala-AMOS MPS 182397
2001 07 21.39256 19 55 01.49 -10 16 33.9 19.6   608 – Haleakala-AMOS MPS 182397
2001 07 21.40386 19 55 00.80 -10 16 34.0 19.2   608 – Haleakala-AMOS MPS 182397
2003 01 27.34508 08 29 44.71 +09 36 40.0 19.9   644 – Palomar Mountain/NEAT MPS 182397
2003 01 27.41185 08 29 40.73 +09 36 53.8 19.8   644 – Palomar Mountain/NEAT MPS 182397
2003 01 27.47649 08 29 36.97 +09 37 07.1 20.0   644 – Palomar Mountain/NEAT MPS 182397
2005 05 19.38603 16 11 12.82 -18 57 34.7 19.8 R G96 – Mt. Lemmon Survey MPS 182397
2005 05 19.39145 16 11 12.52 -18 57 33.3 19.8 R G96 – Mt. Lemmon Survey MPS 182397
2005 05 19.39688 16 11 12.24 -18 57 31.9 19.1 R G96 – Mt. Lemmon Survey MPS 182397
2005 05 19.40230 16 11 11.91 -18 57 30.3 19.8 R G96 – Mt. Lemmon Survey MPS 182397
2006 08 28.46831 03 22 22.11 +22 26 35.4 19.6 V 703 – Catalina Sky Survey MPS 182397
2006 08 28.46991 03 22 22.26 +22 26 35.1 19.3 V 703 – Catalina Sky Survey MPS 182397
2006 08 28.47313 03 22 22.51 +22 26 36.5 19.1 V 703 – Catalina Sky Survey MPS 182397
2006 08 28.47473 03 22 22.65 +22 26 35.4 19.5 V 703 – Catalina Sky Survey MPS 182397
2006 08 28.47799 03 22 22.98 +22 26 37.1 19.5 V 703 – Catalina Sky Survey MPS 182397
2006 08 28.47959 03 22 23.05 +22 26 36.9 19.3 V 703 – Catalina Sky Survey MPS 182397
2006 08 28.48279 03 22 23.41 +22 26 38.5 19.5 V 703 – Catalina Sky Survey MPS 182397
2006 08 28.48440 03 22 23.44 +22 26 37.8 19.3 V 703 – Catalina Sky Survey MPS 182397
2006 09 17.44049 03 46 51.56 +23 00 29.9 19.2 R 699 – Lowell Observatory-LONEOS MPS 179625
2006 09 17.45510 03 46 52.37 +23 00 31.4   699 – Lowell Observatory-LONEOS MPS 179625
2006 09 17.46969 03 46 53.15 +23 00 31.0   699 – Lowell Observatory-LONEOS MPS 179625
2006 09 17.48432 03 46 53.90 +23 00 30.8   699 – Lowell Observatory-LONEOS MPS 179625
2006 09 19.40970 03 48 38.39 +23 00 10.7 18.7   704 – Lincoln Laboratory ETS, New Mexico MPS 179625
2006 09 19.43357 03 48 39.53 +23 00 08.4 19.0   704 – Lincoln Laboratory ETS, New Mexico MPS 179625
2006 09 19.43548 03 48 39.60 +23 00 08.2 18.8 V 703 – Catalina Sky Survey MPS 179625
2006 09 19.44456 03 48 40.03 +23 00 07.0 18.6 V 703 – Catalina Sky Survey MPS 179625
2006 09 19.44552 03 48 39.96 +23 00 08.6 19.4   704 – Lincoln Laboratory ETS, New Mexico MPS 179625
2006 09 19.45371 03 48 40.50 +23 00 07.6 18.8 V 703 – Catalina Sky Survey MPS 179625
2006 09 19.45751 03 48 40.62 +23 00 07.8 19.1   704 – Lincoln Laboratory ETS, New Mexico MPS 179625
2006 09 19.46279 03 48 40.93 +23 00 07.4 18.7 V 703 – Catalina Sky Survey MPS 179625
2006 09 20.33664 03 49 25.92 +22 59 44.2 18.8   704 – Lincoln Laboratory ETS, New Mexico MPS 179625
2006 09 20.34812 03 49 26.42 +22 59 43.5 19.4   704 – Lincoln Laboratory ETS, New Mexico MPS 179625
2006 09 20.35959 03 49 27.06 +22 59 43.8 18.9   704 – Lincoln Laboratory ETS, New Mexico MPS 179625
2006 09 20.37113 03 49 27.59 +22 59 43.5 19.3   704 – Lincoln Laboratory ETS, New Mexico MPS 179625
2006 09 20.38295 03 49 28.23 +22 59 42.1 19.7   704 – Lincoln Laboratory ETS, New Mexico MPS 179625
2006 09 20.39920 03 49 28.85 +22 59 42.6 19.2   704 – Lincoln Laboratory ETS, New Mexico MPS 179625
2006 09 20.41065 03 49 29.43 +22 59 42.4 19.2   704 – Lincoln Laboratory ETS, New Mexico MPS 179625
2006 09 20.43372 03 49 30.50 +22 59 41.7 19.0   704 – Lincoln Laboratory ETS, New Mexico MPS 179625
2006 09 29.34547 03 55 30.87 +22 47 55.8 19.2   704 – Lincoln Laboratory ETS, New Mexico MPS 181279
2006 09 29.35779 03 55 31.19 +22 47 53.0 19.0   704 – Lincoln Laboratory ETS, New Mexico MPS 181279
2006 09 29.37009 03 55 31.66 +22 47 50.8 18.7   704 – Lincoln Laboratory ETS, New Mexico MPS 181279
2006 09 29.38253 03 55 32.00 +22 47 49.2 19.1   704 – Lincoln Laboratory ETS, New Mexico MPS 181279
2006 09 30.37505 03 56 00.99 +22 45 38.6 18.6 V G96 – Mt. Lemmon Survey MPS 182865
2006 09 30.38063 03 56 01.14 +22 45 37.8 18.6 V G96 – Mt. Lemmon Survey MPS 182865
2006 09 30.38631 03 56 01.28 +22 45 37.2 18.7 V G96 – Mt. Lemmon Survey MPS 182865
2006 09 30.39192 03 56 01.42 +22 45 36.3 18.7 V G96 – Mt. Lemmon Survey MPS 182865
2006 10 23.30719 03 56 28.20 +21 07 53.9 18.5   704 – Lincoln Laboratory ETS, New Mexico MPS 183844
2006 10 23.33037 03 56 27.48 +21 07 45.1 18.5   704 – Lincoln Laboratory ETS, New Mexico MPS 183844
2006 10 23.34195 03 56 27.16 +21 07 40.9 18.7   704 – Lincoln Laboratory ETS, New Mexico MPS 183844
2006 10 23.35345 03 56 26.75 +21 07 35.6 18.8   704 – Lincoln Laboratory ETS, New Mexico MPS 183844
2006 11 09.38959 03 45 20.74 +19 05 59.2 17.6 R 644 – Palomar Mountain/NEAT MPS 190234
2006 11 09.41038 03 45 19.65 +19 05 49.3 17.6 R 644 – Palomar Mountain/NEAT MPS 190234
2006 11 09.43115 03 45 18.57 +19 05 39.2 17.6 R 644 – Palomar Mountain/NEAT MPS 190234
2006 11 10.18409 03 44 42.05 +18 59 44.8 18.2 V 691 – Steward Observatory, Kitt Peak-Spacewatch MPS 186472
2006 11 10.19399 03 44 41.53 +18 59 40.1 18.3 V 691 – Steward Observatory, Kitt Peak-Spacewatch MPS 186472
2006 11 10.20389 03 44 41.02 +18 59 35.6 18.2 V 691 – Steward Observatory, Kitt Peak-Spacewatch MPS 186472
2006 11 11.32881 03 43 44.43 +18 50 45.1 17.3 V 703 – Catalina Sky Survey MPS 186702
2006 11 11.33757 03 43 43.89 +18 50 40.0 17.2 V 703 – Catalina Sky Survey MPS 186702
2006 11 11.34634 03 43 43.50 +18 50 35.7 17.3 V 703 – Catalina Sky Survey MPS 186702
2006 11 11.35507 03 43 42.99 +18 50 32.1 17.2 V 703 – Catalina Sky Survey MPS 186702
2006 11 14.22212 03 41 17.67 +18 27 52.4   691 – Steward Observatory, Kitt Peak-Spacewatch MPS 186702
2006 11 14.23205 03 41 17.13 +18 27 47.8   691 – Steward Observatory, Kitt Peak-Spacewatch MPS 186702
2006 11 14.24199 03 41 16.58 +18 27 42.8   691 – Steward Observatory, Kitt Peak-Spacewatch MPS 186702
2006 11 17.30374 03 38 39.19 +18 03 34.0 17.4 V 703 – Catalina Sky Survey MPS 188263
2006 11 17.31074 03 38 38.83 +18 03 30.6 17.4 V 703 – Catalina Sky Survey MPS 188263
2006 11 17.31772 03 38 38.43 +18 03 27.3 17.4 V 703 – Catalina Sky Survey MPS 188263
2006 11 17.32474 03 38 38.04 +18 03 24.1 17.3 V 703 – Catalina Sky Survey MPS 188263
2006 11 17.35564 03 38 36.38 +18 03 09.9 17.3 V 703 – Catalina Sky Survey MPS 188263
2006 11 17.36309 03 38 35.98 +18 03 06.3 17.3 V 703 – Catalina Sky Survey MPS 188263
2006 11 17.37060 03 38 35.55 +18 03 02.7 17.3 V 703 – Catalina Sky Survey MPS 188263
2006 11 17.37815 03 38 35.16 +18 02 59.1 17.2 V 703 – Catalina Sky Survey MPS 188263
2006 11 18.25622 03 37 50.54 +17 56 06.6 17.7   704 – Lincoln Laboratory ETS, New Mexico MPS 188263
